GFSNW_prec_precacc12_105.txt.gz
Total_Precipitation_Accumulation
0.00 0.00 0.00 0.02 0.05 0.01 0.00 0.00 0.00 0.00 0.04 0.18 0.04 0.01 0.01 0.01 0.03 0.08 0.19 0.26 0.36 0.54 0.31 0.44 0.45 0.15 0.02 0.00 0.00 0.00 0.00 0.03 0.05 0.03 0.00 0.00 0.00 0.00 0.02 0.09 0.06 0.06 0.07 0.06
0.01 0.01 0.01 0.04 0.03 0.00 0.00 0.00 0.00 0.00 0.01 0.10 0.09 0.01 0.00 0.01 0.00 0.01 0.10 0.18 0.43 0.61 0.62 0.67 0.63 0.20 0.03 0.00 0.00 0.02 0.02 0.05 0.09 0.15 0.08 0.03 0.01 0.00 0.05 0.12 0.05 0.03 0.07 0.05
0.00 0.00 0.00 0.06 0.03 0.01 0.00 0.00 0.00 0.00 0.02 0.04 0.06 0.03 0.01 0.01 0.00 0.00 0.07 0.28 0.57 0.62 0.76 0.70 0.62 0.33 0.06 0.02 0.00 0.00 0.01 0.04 0.05 0.04 0.03 0.01 0.02 0.01 0.01 0.04 0.08 0.06 0.03 0.01
0.00 0.00 0.00 0.05 0.04 0.01 0.00 0.00 0.00 0.00 0.00 0.04 0.03 0.07 0.04 0.06 0.10 0.09 0.19 0.51 0.39 0.44 0.61 0.45 0.43 0.38 0.13 0.06 0.02 0.01 0.01 0.02 0.02 0.02 0.01 0.01 0.02 0.01 0.01 0.02 0.01 0.06 0.01 0.01
0.00 0.00 0.00 0.05 0.04 0.01 0.00 0.00 0.00 0.00 0.00 0.00 0.02 0.06 0.06 0.03 0.16 0.37 0.33 0.11 0.06 0.10 0.11 0.25 0.23 0.24 0.18 0.16 0.08 0.05 0.02 0.00 0.00 0.00 0.00 0.00 0.00 0.00 0.00 0.00 0.00 0.00 0.00 0.02
0.00 0.00 0.01 0.06 0.05 0.00 0.00 0.00 0.00 0.00 0.00 0.00 0.00 0.05 0.06 0.06 0.11 0.11 0.06 0.01 0.00 0.00 0.00 0.00 0.00 0.00 0.00 0.00 0.02 0.03 0.02 0.00 0.00 0.00 0.00 0.00 0.00 0.00 0.00 0.00 0.00 0.01 0.03 0.04
0.01 0.01 0.02 0.05 0.09 0.00 0.00 0.00 0.00 0.00 0.00 0.00 0.00 0.00 0.00 0.01 0.00 0.02 0.00 0.00 0.00 0.00 0.00 0.00 0.00 0.00 0.00 0.00 0.00 0.00 0.00 0.00 0.00 0.00 0.00 0.00 0.00 0.00 0.00 0.00 0.00 0.03 0.04 0.03
0.01 0.02 0.02 0.03 0.09 0.09 0.01 0.00 0.00 0.00 0.00 0.00 0.00 0.00 0.00 0.00 0.00 0.00 0.01 0.00 0.00 0.00 0.00 0.00 0.00 0.00 0.00 0.00 0.00 0.00 0.00 0.00 0.00 0.00 0.00 0.00 0.02 0.00 0.00 0.00 0.01 0.01 0.06 0.20
0.01 0.01 0.02 0.03 0.05 0.15 0.07 0.01 0.00 0.00 0.01 0.00 0.00 0.00 0.00 0.00 0.00 0.00 0.00 0.00 0.00 0.00 0.00 0.00 0.00 0.00 0.00 0.00 0.00 0.00 0.00 0.00 0.00 0.00 0.00 0.01 0.02 0.00 0.00 0.00 0.02 0.00 0.07 0.31
0.01 0.01 0.02 0.04 0.07 0.14 0.08 0.02 0.00 0.04 0.03 0.00 0.00 0.00 0.00 0.00 0.00 0.00 0.00 0.00 0.00 0.00 0.00 0.01 0.00 0.01 0.00 0.00 0.00 0.00 0.00 0.00 0.00 0.00 0.01 0.01 0.00 0.00 0.00 0.03 0.03 0.01 0.02 0.12
0.01 0.01 0.02 0.04 0.07 0.14 0.10 0.05 0.00 0.02 0.03 0.00 0.00 0.00 0.00 0.00 0.00 0.00 0.00 0.00 0.01 0.01 0.01 0.01 0.01 0.02 0.01 0.03 0.02 0.02 0.02 0.03 0.02 0.02 0.02 0.03 0.00 0.00 0.01 0.02 0.02 0.02 0.02 0.03
0.01 0.01 0.01 0.03 0.07 0.13 0.20 0.09 0.01 0.02 0.05 0.01 0.00 0.00 0.00 0.00 0.00 0.00 0.00 0.00 0.03 0.07 0.06 0.06 0.05 0.04 0.02 0.01 0.07 0.01 0.09 0.06 0.04 0.04 0.09 0.12 0.03 0.02 0.02 0.01 0.04 0.06 0.06 0.10
0.01 0.02 0.03 0.02 0.04 0.14 0.25 0.15 0.04 0.13 0.11 0.01 0.00 0.00 0.00 0.00 0.00 0.00 0.00 0.01 0.02 0.04 0.06 0.10 0.17 0.07 0.03 0.03 0.04 0.04 0.01 0.00 0.10 0.25 0.33 0.16 0.08 0.08 0.04 0.05 0.08 0.11 0.11 0.07
0.03 0.04 0.05 0.04 0.04 0.10 0.33 0.25 0.06 0.09 0.10 0.02 0.01 0.00 0.00 0.00 0.00 0.00 0.00 0.00 0.01 0.05 0.02 0.02 0.03 0.02 0.01 0.02 0.06 0.03 0.01 0.02 0.14 0.34 0.29 0.22 0.13 0.15 0.14 0.13 0.11 0.06 0.11 0.11
0.03 0.04 0.05 0.06 0.09 0.13 0.31 0.26 0.08 0.06 0.10 0.05 0.02 0.01 0.00 0.00 0.00 0.00 0.00 0.00 0.00 0.01 0.02 0.03 0.04 0.02 0.01 0.03 0.04 0.03 0.02 0.04 0.07 0.19 0.26 0.27 0.23 0.22 0.18 0.13 0.19 0.13 0.05 0.02
0.02 0.04 0.06 0.11 0.16 0.25 0.34 0.71 0.27 0.07 0.16 0.16 0.04 0.03 0.00 0.00 0.00 0.00 0.00 0.00 0.00 0.01 0.04 0.03 0.02 0.01 0.02 0.05 0.07 0.06 0.08 0.07 0.08 0.13 0.25 0.31 0.34 0.29 0.20 0.14 0.08 0.03 0.00 0.00
0.02 0.04 0.07 0.15 0.34 0.34 0.20 0.19 0.07 0.06 0.15 0.27 0.07 0.02 0.00 0.00 0.00 0.00 0.00 0.00 0.01 0.06 0.04 0.02 0.02 0.02 0.06 0.10 0.06 0.08 0.10 0.11 0.11 0.15 0.26 0.23 0.13 0.08 0.05 0.01 0.00 0.00 0.00 0.00
0.02 0.04 0.09 0.20 0.51 0.64 0.27 0.04 0.01 0.16 0.32 0.23 0.06 0.01 0.00 0.00 0.00 0.00 0.00 0.00 0.01 0.03 0.03 0.03 0.03 0.03 0.04 0.06 0.05 0.02 0.01 0.03 0.04 0.07 0.08 0.10 0.07 0.01 0.00 0.00 0.00 0.00 0.00 0.00
0.04 0.12 0.32 0.64 0.95 0.90 0.23 0.06 0.04 0.09 0.41 0.24 0.03 0.02 0.03 0.01 0.01 0.00 0.01 0.01 0.02 0.02 0.02 0.01 0.04 0.03 0.02 0.01 0.00 0.00 0.00 0.00 0.00 0.00 0.02 0.04 0.03 0.01 0.00 0.00 0.00 0.00 0.00 0.00
0.16 0.65 1.10 1.12 0.49 0.20 0.17 0.62 0.47 0.32 0.30 0.13 0.01 0.01 0.01 0.01 0.01 0.02 0.01 0.03 0.04 0.06 0.02 0.02 0.04 0.02 0.01 0.00 0.00 0.00 0.00 0.00 0.00 0.00 0.00 0.00 0.00 0.00 0.00 0.00 0.00 0.00 0.00 0.00
0.90 0.91 0.58 0.31 0.24 0.18 0.49 0.64 0.42 0.21 0.14 0.05 0.00 0.00 0.01 0.00 0.01 0.02 0.02 0.02 0.02 0.02 0.05 0.07 0.04 0.02 0.02 0.01 0.00 0.00 0.00 0.00 0.00 0.00 0.00 0.00 0.00 0.00 0.00 0.00 0.00 0.00 0.00 0.00
0.47 0.32 0.40 0.81 0.57 0.54 0.54 0.32 0.14 0.02 0.00 0.00 0.00 0.00 0.01 0.02 0.10 0.07 0.03 0.05 0.13 0.07 0.11 0.08 0.02 0.03 0.01 0.00 0.00 0.00 0.00 0.00 0.00 0.00 0.00 0.00 0.00 0.00 0.00 0.00 0.00 0.00 0.00 0.00
0.45 0.51 0.51 0.85 0.57 0.37 0.17 0.08 0.01 0.00 0.00 0.00 0.01 0.02 0.01 0.06 0.20 0.21 0.06 0.02 0.12 0.15 0.14 0.06 0.01 0.01 0.01 0.00 0.00 0.00 0.00 0.00 0.00 0.00 0.00 0.00 0.00 0.00 0.00 0.00 0.00 0.00 0.00 0.00
0.60 0.56 0.37 0.30 0.22 0.04 0.00 0.00 0.00 0.00 0.00 0.00 0.00 0.01 0.01 0.12 0.18 0.18 0.13 0.04 0.03 0.04 0.03 0.01 0.01 0.01 0.00 0.00 0.00 0.00 0.00 0.00 0.00 0.00 0.00 0.00 0.00 0.00 0.00 0.00 0.00 0.00 0.00 0.00
0.37 0.27 0.08 0.02 0.01 0.01 0.01 0.01 0.00 0.00 0.00 0.00 0.01 0.01 0.01 0.05 0.10 0.04 0.03 0.03 0.02 0.01 0.01 0.00 0.00 0.00 0.00 0.00 0.00 0.00 0.00 0.00 0.00 0.00 0.00 0.00 0.00 0.00 0.00 0.00 0.00 0.00 0.00 0.00
0.13 0.09 0.02 0.02 0.01 0.03 0.02 0.02 0.02 0.01 0.01 0.01 0.01 0.01 0.02 0.02 0.04 0.02 0.01 0.01 0.02 0.01 0.00 0.00 0.01 0.00 0.00 0.00 0.00 0.00 0.00 0.00 0.00 0.00 0.00 0.00 0.00 0.00 0.00 0.00 0.00 0.00 0.00 0.00
0.07 0.03 0.02 0.01 0.02 0.02 0.03 0.03 0.02 0.01 0.01 0.01 0.01 0.00 0.00 0.01 0.00 0.00 0.00 0.00 0.00 0.00 0.00 0.00 0.00 0.00 0.00 0.00 0.00 0.00 0.00 0.00 0.00 0.00 0.00 0.00 0.00 0.00 0.00 0.00 0.00 0.00 0.00 0.00

GFSNW_prec_precacc12_108.txt.gz
Total_Precipitation_Accumulation
0.00 0.00 0.00 0.00 0.01 0.00 0.00 0.00 0.00 0.00 0.01 0.10 0.03 0.01 0.00 0.00 0.01 0.03 0.08 0.10 0.33 0.61 0.45 0.52 0.56 0.29 0.05 0.00 0.00 0.01 0.02 0.09 0.08 0.06 0.01 0.00 0.02 0.03 0.02 0.05 0.05 0.03 0.10 0.40
0.00 0.00 0.00 0.01 0.00 0.00 0.00 0.00 0.00 0.00 0.01 0.02 0.03 0.01 0.00 0.00 0.00 0.00 0.02 0.09 0.46 0.62 0.78 0.91 1.05 0.38 0.06 0.00 0.00 0.03 0.03 0.09 0.14 0.22 0.15 0.05 0.04 0.01 0.02 0.11 0.07 0.02 0.04 0.18
0.00 0.00 0.00 0.03 0.01 0.00 0.00 0.00 0.00 0.00 0.01 0.01 0.03 0.02 0.01 0.00 0.00 0.01 0.03 0.16 0.48 0.62 0.79 0.81 0.90 0.40 0.06 0.02 0.00 0.02 0.02 0.06 0.09 0.18 0.06 0.03 0.06 0.07 0.03 0.03 0.06 0.04 0.04 0.11
0.00 0.00 0.00 0.02 0.02 0.00 0.00 0.00 0.00 0.00 0.00 0.00 0.00 0.04 0.03 0.02 0.05 0.06 0.15 0.31 0.34 0.46 0.64 0.48 0.51 0.46 0.13 0.06 0.02 0.03 0.05 0.13 0.16 0.11 0.03 0.02 0.08 0.07 0.04 0.04 0.03 0.03 0.03 0.04
0.00 0.00 0.00 0.02 0.02 0.00 0.00 0.00 0.00 0.00 0.00 0.00 0.00 0.01 0.02 0.01 0.09 0.27 0.29 0.07 0.05 0.09 0.11 0.31 0.27 0.31 0.21 0.18 0.08 0.05 0.03 0.03 0.02 0.16 0.08 0.02 0.04 0.01 0.00 0.00 0.01 0.02 0.06 0.12
0.00 0.00 0.00 0.03 0.03 0.00 0.00 0.00 0.00 0.00 0.00 0.00 0.00 0.00 0.00 0.00 0.05 0.06 0.05 0.01 0.00 0.00 0.00 0.00 0.00 0.01 0.00 0.00 0.03 0.04 0.02 0.00 0.00 0.00 0.00 0.00 0.00 0.00 0.00 0.01 0.01 0.01 0.03 0.06
0.00 0.00 0.01 0.03 0.05 0.00 0.00 0.00 0.00 0.00 0.01 0.00 0.00 0.00 0.00 0.00 0.00 0.02 0.00 0.00 0.00 0.00 0.00 0.00 0.00 0.00 0.00 0.00 0.00 0.00 0.01 0.01 0.00 0.00 0.00 0.04 0.03 0.00 0.00 0.01 0.00 0.01 0.03 0.03
0.00 0.01 0.02 0.02 0.05 0.04 0.00 0.00 0.00 0.00 0.01 0.00 0.00 0.00 0.00 0.00 0.00 0.00 0.00 0.00 0.00 0.00 0.00 0.00 0.00 0.00 0.01 0.00 0.00 0.00 0.00 0.00 0.00 0.00 0.00 0.02 0.04 0.00 0.00 0.03 0.03 0.01 0.05 0.16
0.00 0.01 0.01 0.02 0.03 0.09 0.04 0.02 0.00 0.01 0.02 0.02 0.00 0.00 0.00 0.00 0.00 0.00 0.00 0.00 0.00 0.00 0.00 0.00 0.01 0.01 0.01 0.00 0.01 0.00 0.00 0.00 0.00 0.00 0.00 0.07 0.10 0.00 0.00 0.00 0.05 0.01 0.05 0.23
0.00 0.01 0.01 0.02 0.04 0.10 0.05 0.03 0.00 0.03 0.03 0.01 0.00 0.00 0.00 0.00 0.00 0.00 0.00 0.00 0.00 0.00 0.01 0.03 0.01 0.03 0.00 0.01 0.01 0.01 0.00 0.00 0.01 0.01 0.03 0.02 0.00 0.00 0.00 0.06 0.11 0.02 0.01 0.08
0.01 0.00 0.00 0.02 0.04 0.10 0.08 0.05 0.00 0.02 0.04 0.01 0.00 0.00 0.00 0.00 0.00 0.00 0.00 0.00 0.01 0.01 0.01 0.02 0.01 0.02 0.01 0.05 0.03 0.03 0.02 0.08 0.03 0.03 0.04 0.05 0.00 0.00 0.02 0.05 0.04 0.03 0.02 0.01
0.01 0.00 0.01 0.01 0.03 0.07 0.18 0.09 0.01 0.02 0.05 0.01 0.00 0.00 0.00 0.00 0.00 0.00 0.00 0.01 0.03 0.03 0.04 0.03 0.03 0.05 0.03 0.02 0.22 0.01 0.09 0.06 0.03 0.04 0.10 0.13 0.04 0.03 0.03 0.02 0.05 0.06 0.04 0.06
0.01 0.01 0.01 0.01 0.01 0.07 0.17 0.16 0.04 0.06 0.05 0.01 0.00 0.01 0.00 0.00 0.00 0.00 0.00 0.02 0.03 0.04 0.03 0.02 0.07 0.09 0.04 0.03 0.07 0.03 0.01 0.00 0.02 0.10 0.24 0.14 0.07 0.07 0.04 0.05 0.06 0.07 0.06 0.05
0.02 0.02 0.02 0.02 0.03 0.06 0.21 0.16 0.05 0.08 0.08 0.02 0.03 0.00 0.00 0.00 0.00 0.00 0.00 0.01 0.01 0.03 0.01 0.02 0.02 0.06 0.02 0.02 0.06 0.02 0.01 0.00 0.03 0.12 0.13 0.14 0.08 0.09 0.10 0.09 0.07 0.04 0.03 0.02
0.02 0.02 0.02 0.04 0.07 0.11 0.26 0.18 0.06 0.06 0.10 0.08 0.05 0.03 0.01 0.00 0.00 0.00 0.00 0.00 0.00 0.00 0.01 0.04 0.07 0.06 0.02 0.04 0.06 0.02 0.00 0.01 0.02 0.10 0.10 0.13 0.12 0.10 0.07 0.06 0.07 0.05 0.03 0.02
0.02 0.02 0.04 0.09 0.15 0.22 0.31 0.40 0.12 0.07 0.17 0.16 0.06 0.08 0.02 0.00 0.00 0.00 0.00 0.00 0.00 0.01 0.03 0.03 0.05 0.03 0.01 0.05 0.11 0.03 0.01 0.03 0.03 0.04 0.07 0.08 0.13 0.14 0.12 0.08 0.06 0.03 0.00 0.00
0.02 0.03 0.06 0.14 0.32 0.33 0.20 0.14 0.03 0.04 0.13 0.21 0.04 0.06 0.01 0.00 0.00 0.00 0.00 0.00 0.01 0.06 0.05 0.03 0.04 0.06 0.03 0.06 0.04 0.03 0.03 0.06 0.08 0.06 0.10 0.13 0.08 0.04 0.03 0.01 0.00 0.00 0.00 0.00
0.01 0.03 0.09 0.18 0.48 0.64 0.30 0.05 0.01 0.10 0.25 0.17 0.05 0.04 0.01 0.00 0.01 0.01 0.00 0.01 0.00 0.02 0.04 0.04 0.03 0.04 0.02 0.01 0.01 0.01 0.00 0.02 0.03 0.05 0.06 0.08 0.06 0.01 0.00 0.00 0.00 0.00 0.00 0.00
0.02 0.09 0.24 0.46 0.63 0.62 0.21 0.07 0.04 0.05 0.31 0.22 0.03 0.03 0.06 0.01 0.02 0.01 0.01 0.01 0.03 0.02 0.02 0.02 0.04 0.03 0.03 0.01 0.00 0.00 0.00 0.00 0.00 0.01 0.02 0.04 0.03 0.01 0.00 0.00 0.00 0.00 0.00 0.00
0.12 0.46 0.71 0.61 0.21 0.16 0.19 0.58 0.36 0.21 0.22 0.12 0.02 0.03 0.05 0.01 0.02 0.03 0.01 0.03 0.06 0.07 0.02 0.01 0.02 0.02 0.01 0.00 0.00 0.00 0.00 0.00 0.00 0.00 0.00 0.00 0.00 0.00 0.00 0.00 0.00 0.00 0.00 0.00
0.62 0.64 0.37 0.13 0.21 0.19 0.40 0.51 0.36 0.17 0.07 0.04 0.00 0.01 0.03 0.01 0.03 0.05 0.05 0.04 0.04 0.02 0.05 0.05 0.04 0.02 0.01 0.01 0.00 0.00 0.00 0.00 0.00 0.00 0.00 0.00 0.00 0.00 0.00 0.00 0.00 0.00 0.00 0.00
0.27 0.20 0.29 0.82 0.62 0.41 0.45 0.28 0.15 0.03 0.00 0.00 0.00 0.00 0.03 0.03 0.05 0.10 0.06 0.04 0.05 0.05 0.10 0.07 0.02 0.02 0.01 0.00 0.00 0.00 0.00 0.00 0.00 0.00 0.00 0.00 0.00 0.00 0.00 0.00 0.00 0.00 0.00 0.00
0.47 0.58 0.61 0.90 0.51 0.30 0.16 0.08 0.02 0.00 0.01 0.00 0.01 0.02 0.02 0.03 0.04 0.17 0.06 0.02 0.08 0.15 0.12 0.06 0.01 0.01 0.00 0.00 0.00 0.00 0.00 0.00 0.00 0.00 0.00 0.00 0.00 0.00 0.00 0.00 0.00 0.00 0.00 0.00
0.64 0.61 0.44 0.32 0.24 0.03 0.01 0.00 0.01 0.00 0.00 0.00 0.01 0.01 0.01 0.03 0.07 0.14 0.13 0.05 0.04 0.05 0.04 0.02 0.01 0.01 0.00 0.00 0.00 0.00 0.00 0.00 0.00 0.00 0.00 0.00 0.00 0.00 0.00 0.00 0.00 0.00 0.00 0.00
0.41 0.31 0.18 0.04 0.02 0.01 0.02 0.01 0.02 0.01 0.00 0.01 0.01 0.01 0.01 0.05 0.10 0.04 0.04 0.04 0.03 0.01 0.02 0.01 0.00 0.00 0.00 0.00 0.00 0.00 0.00 0.00 0.00 0.00 0.00 0.00 0.00 0.00 0.00 0.00 0.00 0.00 0.00 0.00
0.15 0.11 0.06 0.04 0.01 0.02 0.02 0.01 0.01 0.02 0.03 0.02 0.02 0.02 0.02 0.02 0.04 0.03 0.01 0.02 0.05 0.04 0.00 0.00 0.00 0.00 0.00 0.00 0.00 0.00 0.00 0.00 0.00 0.00 0.00 0.00 0.00 0.00 0.00 0.00 0.00 0.00 0.00 0.00
0.09 0.05 0.02 0.02 0.03 0.02 0.02 0.02 0.01 0.03 0.04 0.02 0.04 0.02 0.01 0.01 0.01 0.00 0.01 0.01 0.01 0.00 0.00 0.00 0.00 0.00 0.00 0.00 0.00 0.00 0.00 0.00 0.00 0.00 0.00 0.00 0.00 0.00 0.00 0.01 0.00 0.00 0.00 0.00

GFSNW_prec_precacc12_114.txt.gz
Total_Precipitation_Accumulation
0.00 0.00 0.00 0.00 0.00 0.00 0.00 0.00 0.00 0.00 0.00 0.02 0.01 0.01 0.00 0.00 0.00 0.00 0.00 0.01 0.13 0.24 0.26 0.22 0.38 0.28 0.36 0.13 0.02 0.03 0.07 0.65 0.50 0.17 0.09 0.06 0.14 0.10 0.05 0.12 0.19 0.23 0.67 1.28
0.00 0.00 0.00 0.00 0.00 0.00 0.00 0.00 0.00 0.00 0.00 0.01 0.00 0.00 0.00 0.00 0.00 0.00 0.01 0.06 0.27 0.23 0.44 0.62 0.90 0.43 0.16 0.05 0.03 0.12 0.13 0.48 0.28 0.25 0.38 0.16 0.09 0.05 0.08 0.14 0.27 0.39 0.64 1.09
0.00 0.00 0.00 0.00 0.00 0.00 0.00 0.00 0.00 0.00 0.00 0.00 0.00 0.00 0.00 0.00 0.00 0.00 0.01 0.05 0.14 0.16 0.39 0.58 0.65 0.28 0.05 0.01 0.00 0.02 0.10 0.11 0.11 0.28 0.23 0.11 0.10 0.13 0.14 0.17 0.26 0.39 0.55 0.69
0.00 0.00 0.00 0.00 0.00 0.00 0.00 0.00 0.00 0.00 0.00 0.00 0.00 0.00 0.00 0.00 0.01 0.00 0.02 0.05 0.08 0.13 0.24 0.19 0.26 0.25 0.06 0.02 0.00 0.02 0.04 0.14 0.31 0.21 0.20 0.16 0.49 0.45 0.49 0.36 0.24 0.26 0.48 0.20
0.00 0.00 0.00 0.00 0.00 0.00 0.00 0.00 0.00 0.00 0.00 0.00 0.00 0.00 0.00 0.00 0.00 0.01 0.00 0.01 0.01 0.02 0.02 0.13 0.11 0.19 0.14 0.12 0.06 0.04 0.02 0.13 0.39 0.91 0.52 0.15 0.33 0.21 0.16 0.16 0.18 0.26 0.18 0.21
0.00 0.00 0.00 0.00 0.00 0.00 0.00 0.00 0.00 0.00 0.00 0.00 0.00 0.00 0.00 0.00 0.00 0.00 0.00 0.00 0.00 0.00 0.00 0.00 0.00 0.01 0.00 0.00 0.03 0.04 0.02 0.02 0.08 0.27 0.30 0.07 0.22 0.14 0.04 0.05 0.06 0.05 0.08 0.14
0.00 0.00 0.00 0.00 0.00 0.00 0.00 0.00 0.00 0.00 0.01 0.00 0.00 0.00 0.00 0.00 0.00 0.00 0.00 0.00 0.00 0.00 0.00 0.00 0.00 0.00 0.00 0.00 0.00 0.00 0.01 0.01 0.01 0.06 0.04 0.25 0.50 0.08 0.01 0.02 0.02 0.02 0.04 0.06
0.00 0.00 0.00 0.00 0.00 0.00 0.00 0.00 0.00 0.00 0.01 0.00 0.00 0.00 0.00 0.00 0.00 0.00 0.00 0.00 0.00 0.00 0.00 0.00 0.00 0.01 0.01 0.00 0.00 0.00 0.00 0.00 0.00 0.06 0.08 0.20 0.08 0.01 0.01 0.06 0.06 0.02 0.02 0.07
0.00 0.00 0.00 0.00 0.00 0.01 0.01 0.01 0.00 0.01 0.02 0.03 0.00 0.00 0.00 0.00 0.00 0.00 0.00 0.00 0.00 0.00 0.00 0.00 0.01 0.01 0.01 0.02 0.02 0.00 0.00 0.00 0.01 0.01 0.03 0.16 0.12 0.00 0.00 0.01 0.08 0.03 0.01 0.03
0.00 0.00 0.00 0.00 0.00 0.01 0.01 0.02 0.00 0.01 0.02 0.01 0.00 0.00 0.00 0.00 0.00 0.00 0.00 0.00 0.00 0.00 0.01 0.03 0.01 0.03 0.01 0.08 0.03 0.01 0.00 0.01 0.01 0.02 0.05 0.04 0.00 0.00 0.00 0.07 0.17 0.05 0.02 0.01
0.00 0.00 0.00 0.00 0.00 0.01 0.04 0.04 0.00 0.02 0.03 0.01 0.00 0.00 0.00 0.00 0.00 0.00 0.00 0.00 0.00 0.00 0.01 0.01 0.01 0.02 0.02 0.11 0.03 0.02 0.01 0.10 0.03 0.03 0.04 0.05 0.00 0.01 0.05 0.11 0.07 0.04 0.03 0.01
0.01 0.00 0.00 0.00 0.00 0.01 0.06 0.08 0.03 0.01 0.02 0.00 0.00 0.00 0.00 0.00 0.00 0.00 0.00 0.01 0.03 0.02 0.03 0.02 0.01 0.03 0.03 0.02 0.30 0.01 0.04 0.02 0.02 0.02 0.04 0.07 0.03 0.04 0.06 0.02 0.03 0.02 0.01 0.01
0.01 0.00 0.00 0.00 0.00 0.01 0.04 0.07 0.02 0.01 0.01 0.00 0.00 0.02 0.00 0.00 0.00 0.00 0.01 0.04 0.03 0.04 0.02 0.02 0.02 0.06 0.04 0.03 0.07 0.03 0.01 0.00 0.02 0.06 0.07 0.03 0.02 0.01 0.01 0.01 0.01 0.00 0.00 0.00
0.02 0.00 0.00 0.00 0.00 0.01 0.04 0.03 0.02 0.04 0.05 0.02 0.04 0.01 0.00 0.00 0.00 0.00 0.00 0.01 0.01 0.02 0.01 0.02 0.02 0.07 0.03 0.02 0.06 0.02 0.01 0.00 0.01 0.05 0.05 0.02 0.01 0.01 0.01 0.00 0.00 0.00 0.00 0.00
0.02 0.01 0.00 0.00 0.00 0.01 0.05 0.06 0.01 0.01 0.05 0.09 0.06 0.04 0.01 0.00 0.00 0.00 0.00 0.00 0.00 0.00 0.00 0.04 0.07 0.07 0.01 0.03 0.08 0.03 0.00 0.00 0.02 0.06 0.03 0.04 0.03 0.00 0.00 0.00 0.00 0.00 0.00 0.00
0.02 0.01 0.00 0.00 0.03 0.05 0.10 0.12 0.03 0.02 0.09 0.11 0.06 0.10 0.05 0.00 0.00 0.00 0.00 0.00 0.00 0.00 0.01 0.03 0.05 0.05 0.01 0.03 0.11 0.03 0.00 0.00 0.00 0.01 0.00 0.00 0.01 0.01 0.00 0.00 0.00 0.00 0.00 0.00
0.03 0.01 0.00 0.01 0.10 0.17 0.11 0.11 0.11 0.03 0.04 0.07 0.02 0.08 0.01 0.00 0.00 0.00 0.00 0.00 0.01 0.03 0.04 0.03 0.04 0.06 0.03 0.02 0.03 0.01 0.00 0.00 0.00 0.00 0.01 0.03 0.01 0.01 0.00 0.00 0.00 0.00 0.00 0.00
0.03 0.01 0.00 0.04 0.16 0.32 0.15 0.08 0.07 0.03 0.02 0.02 0.03 0.06 0.01 0.00 0.01 0.01 0.00 0.01 0.00 0.01 0.03 0.03 0.01 0.04 0.02 0.00 0.00 0.00 0.00 0.00 0.00 0.00 0.00 0.02 0.02 0.01 0.00 0.00 0.00 0.00 0.00 0.00
0.02 0.00 0.06 0.18 0.24 0.31 0.12 0.06 0.06 0.05 0.07 0.06 0.01 0.03 0.08 0.01 0.02 0.02 0.01 0.01 0.03 0.02 0.02 0.01 0.03 0.03 0.04 0.01 0.00 0.00 0.00 0.00 0.00 0.00 0.00 0.00 0.01 0.01 0.00 0.00 0.00 0.00 0.00 0.00
0.02 0.08 0.21 0.19 0.07 0.16 0.25 0.39 0.25 0.18 0.12 0.03 0.02 0.03 0.06 0.01 0.01 0.02 0.01 0.03 0.06 0.08 0.02 0.01 0.02 0.02 0.01 0.00 0.00 0.00 0.00 0.00 0.00 0.00 0.00 0.00 0.00 0.00 0.00 0.00 0.00 0.00 0.00 0.00
0.09 0.15 0.09 0.08 0.15 0.22 0.29 0.24 0.25 0.13 0.03 0.01 0.00 0.01 0.04 0.02 0.03 0.05 0.05 0.05 0.04 0.02 0.05 0.03 0.02 0.03 0.00 0.00 0.00 0.00 0.00 0.00 0.00 0.00 0.00 0.00 0.00 0.00 0.00 0.00 0.00 0.00 0.00 0.00
0.07 0.07 0.25 0.59 0.37 0.19 0.30 0.19 0.12 0.02 0.00 0.00 0.00 0.00 0.05 0.05 0.07 0.12 0.06 0.04 0.02 0.03 0.08 0.04 0.02 0.02 0.00 0.00 0.00 0.00 0.00 0.00 0.00 0.00 0.00 0.00 0.00 0.00 0.00 0.00 0.00 0.00 0.00 0.00
0.11 0.32 0.44 0.54 0.21 0.13 0.09 0.10 0.04 0.00 0.01 0.00 0.00 0.01 0.04 0.04 0.04 0.05 0.02 0.01 0.03 0.05 0.05 0.04 0.01 0.00 0.00 0.00 0.00 0.00 0.00 0.00 0.00 0.00 0.00 0.00 0.00 0.00 0.00 0.00 0.00 0.00 0.00 0.00
0.17 0.34 0.32 0.18 0.13 0.02 0.01 0.01 0.01 0.01 0.00 0.00 0.00 0.01 0.01 0.02 0.01 0.01 0.05 0.04 0.03 0.03 0.03 0.03 0.01 0.00 0.00 0.00 0.00 0.00 0.00 0.00 0.00 0.00 0.00 0.00 0.00 0.00 0.00 0.00 0.00 0.00 0.00 0.00
0.23 0.33 0.23 0.03 0.04 0.02 0.03 0.04 0.02 0.01 0.00 0.01 0.01 0.01 0.01 0.00 0.00 0.00 0.02 0.03 0.03 0.01 0.03 0.02 0.00 0.00 0.00 0.00 0.00 0.00 0.00 0.00 0.00 0.00 0.00 0.00 0.00 0.00 0.00 0.00 0.00 0.00 0.00 0.00
0.13 0.13 0.12 0.09 0.02 0.00 0.01 0.04 0.09 0.05 0.04 0.02 0.03 0.02 0.01 0.00 0.01 0.01 0.01 0.03 0.05 0.05 0.00 0.00 0.00 0.00 0.00 0.00 0.00 0.00 0.00 0.00 0.00 0.00 0.00 0.00 0.00 0.00 0.00 0.00 0.00 0.00 0.00 0.00
0.08 0.05 0.05 0.06 0.04 0.01 0.01 0.01 0.09 0.15 0.08 0.02 0.05 0.03 0.01 0.02 0.02 0.00 0.01 0.01 0.01 0.00 0.00 0.00 0.00 0.00 0.00 0.00 0.00 0.00 0.00 0.00 0.00 0.00 0.00 0.00 0.00 0.00 0.00 0.01 0.00 0.00 0.00 0.00

GFSNW_prec_precacc12_117.txt.gz
Total_Precipitation_Accumulation
0.02 0.01 0.01 0.00 0.00 0.00 0.00 0.00 0.00 0.00 0.00 0.01 0.00 0.00 0.00 0.00 0.00 0.00 0.00 0.00 0.07 0.13 0.17 0.10 0.17 0.20 0.36 0.13 0.02 0.03 0.08 0.71 0.54 0.20 0.11 0.16 0.20 0.12 0.05 0.11 0.18 0.24 0.83 1.37
0.00 0.01 0.00 0.00 0.00 0.00 0.00 0.00 0.00 0.00 0.00 0.01 0.00 0.00 0.00 0.00 0.00 0.00 0.00 0.02 0.11 0.07 0.19 0.32 0.50 0.36 0.15 0.05 0.03 0.11 0.13 0.53 0.24 0.20 0.43 0.20 0.11 0.08 0.09 0.14 0.31 0.68 0.90 1.20
0.00 0.01 0.00 0.00 0.00 0.00 0.00 0.00 0.00 0.00 0.00 0.00 0.00 0.00 0.00 0.00 0.00 0.00 0.00 0.00 0.01 0.02 0.05 0.16 0.35 0.18 0.04 0.00 0.00 0.02 0.09 0.10 0.15 0.29 0.31 0.21 0.15 0.13 0.16 0.21 0.38 0.58 0.68 0.82
0.00 0.00 0.00 0.00 0.00 0.00 0.00 0.00 0.00 0.00 0.00 0.00 0.00 0.00 0.00 0.00 0.00 0.00 0.00 0.00 0.00 0.02 0.05 0.05 0.08 0.09 0.01 0.00 0.00 0.02 0.05 0.21 0.46 0.39 0.40 0.21 0.54 0.52 0.70 0.44 0.32 0.35 0.62 0.29
0.00 0.00 0.00 0.00 0.00 0.00 0.00 0.00 0.00 0.00 0.00 0.00 0.00 0.00 0.00 0.00 0.00 0.00 0.00 0.00 0.00 0.00 0.01 0.07 0.06 0.09 0.04 0.01 0.00 0.00 0.02 0.19 0.55 1.20 0.70 0.19 0.54 0.60 0.43 0.28 0.27 0.34 0.21 0.23
0.00 0.00 0.00 0.00 0.00 0.00 0.00 0.00 0.00 0.00 0.00 0.00 0.00 0.00 0.00 0.00 0.00 0.00 0.00 0.00 0.00 0.00 0.00 0.00 0.00 0.01 0.00 0.00 0.01 0.01 0.00 0.02 0.12 0.37 0.37 0.09 0.34 0.38 0.16 0.13 0.12 0.08 0.07 0.15
0.00 0.00 0.00 0.00 0.00 0.00 0.00 0.00 0.00 0.00 0.00 0.00 0.00 0.00 0.00 0.00 0.00 0.00 0.00 0.00 0.00 0.00 0.00 0.00 0.00 0.00 0.00 0.00 0.00 0.00 0.01 0.01 0.01 0.09 0.06 0.29 0.68 0.19 0.04 0.03 0.06 0.06 0.06 0.10
0.00 0.00 0.00 0.00 0.00 0.00 0.00 0.00 0.00 0.00 0.00 0.00 0.00 0.00 0.00 0.00 0.00 0.00 0.00 0.00 0.00 0.00 0.00 0.00 0.00 0.01 0.01 0.00 0.00 0.00 0.00 0.00 0.02 0.08 0.11 0.26 0.13 0.03 0.02 0.06 0.08 0.06 0.06 0.07
0.00 0.00 0.00 0.00 0.00 0.00 0.00 0.01 0.00 0.00 0.01 0.02 0.00 0.00 0.00 0.00 0.00 0.00 0.00 0.00 0.00 0.00 0.00 0.00 0.01 0.01 0.01 0.02 0.02 0.00 0.00 0.00 0.01 0.04 0.06 0.17 0.11 0.00 0.00 0.01 0.08 0.05 0.03 0.03
0.00 0.00 0.00 0.00 0.00 0.00 0.00 0.01 0.00 0.00 0.01 0.01 0.00 0.00 0.00 0.00 0.00 0.00 0.00 0.00 0.00 0.00 0.00 0.01 0.01 0.03 0.01 0.08 0.02 0.01 0.00 0.00 0.01 0.02 0.05 0.03 0.00 0.02 0.02 0.06 0.17 0.08 0.03 0.01
0.00 0.00 0.00 0.00 0.00 0.00 0.02 0.03 0.00 0.01 0.01 0.00 0.00 0.00 0.00 0.00 0.00 0.00 0.00 0.00 0.00 0.00 0.00 0.00 0.00 0.00 0.02 0.11 0.03 0.01 0.01 0.08 0.02 0.02 0.03 0.03 0.00 0.01 0.05 0.10 0.07 0.05 0.03 0.01
0.00 0.00 0.00 0.00 0.00 0.00 0.02 0.06 0.03 0.01 0.01 0.00 0.00 0.00 0.00 0.00 0.00 0.00 0.00 0.01 0.02 0.01 0.02 0.01 0.00 0.01 0.02 0.02 0.25 0.00 0.01 0.01 0.01 0.02 0.04 0.07 0.03 0.05 0.05 0.02 0.02 0.01 0.00 0.00
0.01 0.00 0.00 0.00 0.00 0.00 0.01 0.04 0.01 0.00 0.00 0.00 0.00 0.01 0.00 0.00 0.00 0.00 0.00 0.03 0.02 0.03 0.01 0.01 0.01 0.03 0.02 0.02 0.05 0.02 0.01 0.00 0.01 0.04 0.08 0.03 0.02 0.01 0.00 0.00 0.00 0.00 0.00 0.00
0.02 0.00 0.00 0.00 0.00 0.00 0.01 0.02 0.01 0.01 0.02 0.01 0.03 0.01 0.00 0.00 0.00 0.00 0.00 0.00 0.00 0.01 0.00 0.02 0.01 0.05 0.02 0.01 0.03 0.01 0.00 0.00 0.00 0.03 0.04 0.02 0.02 0.00 0.00 0.00 0.00 0.00 0.00 0.00
0.02 0.01 0.00 0.00 0.00 0.00 0.01 0.03 0.00 0.00 0.03 0.05 0.04 0.03 0.00 0.00 0.00 0.00 0.00 0.00 0.00 0.00 0.00 0.02 0.04 0.05 0.01 0.02 0.07 0.03 0.00 0.00 0.01 0.04 0.02 0.02 0.02 0.00 0.00 0.00 0.00 0.00 0.00 0.00
0.03 0.01 0.00 0.00 0.01 0.01 0.04 0.03 0.01 0.00 0.04 0.05 0.03 0.08 0.05 0.00 0.00 0.00 0.00 0.00 0.00 0.00 0.00 0.01 0.03 0.04 0.00 0.02 0.08 0.03 0.00 0.00 0.00 0.00 0.00 0.00 0.00 0.00 0.00 0.00 0.00 0.00 0.00 0.00
0.03 0.01 0.00 0.01 0.03 0.04 0.04 0.06 0.11 0.02 0.01 0.03 0.01 0.05 0.01 0.00 0.00 0.00 0.00 0.00 0.00 0.00 0.01 0.01 0.02 0.05 0.02 0.01 0.02 0.00 0.00 0.00 0.00 0.00 0.00 0.01 0.01 0.00 0.00 0.00 0.00 0.00 0.00 0.00
0.03 0.01 0.00 0.02 0.08 0.13 0.07 0.06 0.07 0.03 0.01 0.01 0.01 0.04 0.01 0.00 0.00 0.01 0.00 0.00 0.00 0.00 0.02 0.02 0.00 0.02 0.02 0.00 0.00 0.00 0.00 0.00 0.00 0.00 0.00 0.00 0.00 0.00 0.00 0.00 0.00 0.00 0.00 0.00
0.02 0.00 0.03 0.08 0.11 0.12 0.07 0.06 0.07 0.04 0.04 0.03 0.01 0.02 0.05 0.00 0.01 0.01 0.00 0.01 0.01 0.01 0.01 0.01 0.01 0.02 0.03 0.01 0.00 0.00 0.00 0.00 0.00 0.00 0.00 0.00 0.00 0.00 0.00 0.00 0.00 0.00 0.00 0.00
0.02 0.04 0.09 0.10 0.03 0.10 0.21 0.26 0.18 0.14 0.09 0.02 0.01 0.02 0.05 0.01 0.01 0.01 0.00 0.01 0.02 0.05 0.02 0.01 0.01 0.01 0.01 0.00 0.00 0.00 0.00 0.00 0.00 0.00 0.00 0.00 0.00 0.00 0.00 0.00 0.00 0.00 0.00 0.00
0.04 0.06 0.05 0.06 0.08 0.18 0.25 0.18 0.18 0.11 0.02 0.01 0.00 0.01 0.03 0.01 0.02 0.03 0.03 0.03 0.03 0.01 0.03 0.02 0.01 0.02 0.00 0.00 0.00 0.00 0.00 0.00 0.00 0.00 0.00 0.00 0.00 0.00 0.00 0.00 0.00 0.00 0.00 0.00
0.02 0.06 0.21 0.42 0.27 0.18 0.28 0.16 0.09 0.01 0.00 0.00 0.00 0.00 0.04 0.04 0.05 0.08 0.04 0.03 0.01 0.01 0.05 0.02 0.01 0.01 0.00 0.00 0.00 0.00 0.00 0.00 0.00 0.00 0.00 0.00 0.00 0.00 0.00 0.00 0.00 0.00 0.00 0.00
0.09 0.22 0.35 0.33 0.14 0.12 0.08 0.09 0.03 0.00 0.00 0.00 0.00 0.01 0.03 0.03 0.03 0.04 0.01 0.01 0.01 0.03 0.03 0.02 0.01 0.00 0.00 0.00 0.00 0.00 0.00 0.00 0.00 0.00 0.00 0.00 0.00 0.00 0.00 0.00 0.00 0.00 0.00 0.00
0.08 0.19 0.23 0.11 0.07 0.01 0.01 0.01 0.01 0.01 0.00 0.00 0.00 0.00 0.01 0.01 0.01 0.01 0.01 0.02 0.02 0.01 0.02 0.02 0.00 0.00 0.00 0.00 0.00 0.00 0.00 0.00 0.00 0.00 0.00 0.00 0.00 0.00 0.00 0.00 0.00 0.00 0.00 0.00
0.08 0.15 0.18 0.03 0.03 0.02 0.03 0.04 0.02 0.01 0.00 0.00 0.00 0.01 0.00 0.00 0.00 0.00 0.00 0.01 0.02 0.01 0.02 0.01 0.00 0.00 0.00 0.00 0.00 0.00 0.00 0.00 0.00 0.00 0.00 0.00 0.00 0.00 0.00 0.00 0.00 0.00 0.00 0.00
0.04 0.04 0.12 0.09 0.02 0.00 0.00 0.03 0.08 0.05 0.03 0.02 0.02 0.02 0.01 0.00 0.01 0.00 0.00 0.01 0.03 0.03 0.00 0.00 0.00 0.00 0.00 0.00 0.00 0.00 0.00 0.00 0.00 0.00 0.00 0.00 0.00 0.00 0.00 0.00 0.00 0.00 0.00 0.00
0.02 0.03 0.05 0.07 0.03 0.01 0.00 0.00 0.09 0.15 0.07 0.01 0.04 0.03 0.01 0.01 0.01 0.00 0.01 0.01 0.01 0.00 0.00 0.00 0.00 0.00 0.00 0.00 0.00 0.00 0.00 0.00 0.00 0.00 0.00 0.00 0.00 0.00 0.00 0.01 0.00 0.00 0.00 0.00